SCP
0 0 0 0 0 0 0 0 0 0 0 0 0 0 0 0 0 0 0 0 0 0
0 0 0 0 -0 -0 0 0 0 0 0 0 0 0 0 0 0 0 0 0 0 0
0 0 0 -0 -0 -0 0 0 0 0 0 0 0 0 0 0 0 0 0 0 0 0
0 0 0 0 0 0 0 0 0 0 0 0 0 0 0 0 0 0 0 0 0 0
0 0 0 0 0 0 0 0 0 0 0 0 0 0 0 0 0 0 0 0 0 0
0 0 0 0 0 0 0 0 0 0 0 0 0 0 0 0 0 0 0 0 0 0
0 0 0 0 0 0 0 0 0 0 0 0 0 0 0 0 0 0 0 0 0 0
0 0 0 0 0 0 0 0 0 0 0 0 0 0 0 0 0 0 0 0 0 0
0 0 0 0 0 0 0 0 0 0 0 0 0 0 0 0 0 0 0 0 0 0
0 0 0 0 0 0 0 0 0 0 0 0 0 0 0 0 0 0 0 0 0 0
0 0 0 0 0 0 0 0 0 0 0 0 0 0 0 0 0 0 0 0 0 0
0 0 0 0 0 0 0 0 0 0 0 0 0 0 0 0 0 0 0 0 0 0
0 0 0 0 0 0 0 0 0 0 0 0 0 0 0 0 0 0 0 0 0 0
0 0 0 0 0 0 0 0 0 0 0 0 0 0 0 0 0 0 0 0 0 0
Wind_Speed_500mb
21 45 43 16 41 62 52 26 18 17 12 7 3 10 14 19 21 24 26 29 32 29
21 19 36 41 47 58 36 24 22 15 7 1 8 15 20 23 24 27 31 33 30 31
38 48 44 54 53 46 37 26 16 8 2 9 15 20 25 26 28 32 31 29 27 26
57 55 55 50 43 36 26 15 6 4 9 16 19 22 25 30 29 27 25 24 24 20
55 52 46 38 28 18 12 6 4 8 12 14 18 23 26 22 23 20 16 16 18 18
47 43 37 29 22 16 10 6 5 7 13 17 19 17 17 18 17 18 18 18 13 15
39 35 31 24 18 12 8 5 9 12 15 14 12 13 13 15 13 15 13 8 10 14
33 28 25 21 15 10 7 9 11 13 12 11 10 10 13 12 13 7 4 5 8 13
30 25 20 16 12 9 9 12 14 15 13 10 11 11 12 11 10 8 3 3 8 15
28 24 19 14 10 10 11 14 14 17 12 9 9 11 12 10 8 3 4 5 11 21
23 18 14 10 10 13 14 11 11 13 13 12 8 11 16 16 11 5 9 7 19 23
13 10 10 12 14 13 7 8 9 11 11 11 10 10 13 14 12 10 6 11 17 20
15 17 18 16 15 12 5 3 7 9 12 13 15 13 12 12 13 13 9 9 13 20
19 18 16 15 13 12 7 3 6 11 13 15 17 18 17 16 16 15 15 15 18 24
Wind_Direction_500mb
220 238 237 237 241 218 255 207 165 172 182 197 328 333 337 336 339 336 333 335 337 337
118 185 183 173 191 196 183 168 171 182 192 34 3 354 345 345 339 333 333 334 332 332
144 160 191 179 165 160 159 160 163 164 42 1 351 347 342 340 336 333 326 328 333 333
156 161 163 159 153 151 141 141 132 33 358 347 343 340 337 334 333 331 327 329 338 352
139 144 148 152 148 136 135 120 20 353 339 329 337 337 334 339 340 348 354 21 35 24
135 137 138 134 130 130 117 99 67 5 342 339 338 347 347 354 1 2 35 38 32 19
135 132 130 129 128 113 95 59 19 356 342 342 359 5 9 5 4 4 46 40 21 6
126 125 123 120 113 101 75 55 37 18 9 19 29 33 19 10 358 14 78 44 13 349
124 122 115 102 85 75 69 53 41 23 33 41 38 29 13 352 338 30 114 344 337 330
120 115 105 89 74 72 66 51 39 25 43 52 37 18 4 354 5 7 243 273 320 320
118 108 97 92 91 86 60 45 25 37 45 47 38 22 16 17 14 304 280 301 323 328
105 102 105 114 106 104 77 25 29 40 39 40 35 25 16 11 356 344 324 307 318 318
111 118 132 127 130 151 156 356 34 19 23 21 15 11 1 354 357 348 322 311 311 314
118 131 137 134 150 174 200 273 350 6 0 359 358 357 355 349 345 345 331 315 318 321
Wind_Speed_850mb
21 45 43 16 41 62 52 26 18 17 12 7 3 10 14 19 21 24 26 29 32 29
21 19 36 41 47 58 36 24 22 15 7 1 8 15 20 23 24 27 31 33 30 31
38 48 44 54 53 46 37 26 16 8 2 9 15 20 25 26 28 32 31 29 27 26
57 55 55 50 43 36 26 15 6 4 9 16 19 22 25 30 29 27 25 24 24 20
55 52 46 38 28 18 12 6 4 8 12 14 18 23 26 22 23 20 16 16 18 18
47 43 37 29 22 16 10 6 5 7 13 17 19 17 17 18 17 18 18 18 13 15
39 35 31 24 18 12 8 5 9 12 15 14 12 13 13 15 13 15 13 8 10 14
33 28 25 21 15 10 7 9 11 13 12 11 10 10 13 12 13 7 4 5 8 13
30 25 20 16 12 9 9 12 14 15 13 10 11 11 12 11 10 8 3 3 8 15
28 24 19 14 10 10 11 14 14 17 12 9 9 11 12 10 8 3 4 5 11 21
23 18 14 10 10 13 14 11 11 13 13 12 8 11 16 16 11 5 9 7 19 23
13 10 10 12 14 13 7 8 9 11 11 11 10 10 13 14 12 10 6 11 17 20
15 17 18 16 15 12 5 3 7 9 12 13 15 13 12 12 13 13 9 9 13 20
19 18 16 15 13 12 7 3 6 11 13 15 17 18 17 16 16 15 15 15 18 24
Wind_Direction_850mb
220 238 237 237 241 218 255 207 165 172 182 197 328 333 337 336 339 336 333 335 337 337
118 185 183 173 191 196 183 168 171 182 192 34 3 354 345 345 339 333 333 334 332 332
144 160 191 179 165 160 159 160 163 164 42 1 351 347 342 340 336 333 326 328 333 333
156 161 163 159 153 151 141 141 132 33 358 347 343 340 337 334 333 331 327 329 338 352
139 144 148 152 148 136 135 120 20 353 339 329 337 337 334 339 340 348 354 21 35 24
135 137 138 134 130 130 117 99 67 5 342 339 338 347 347 354 1 2 35 38 32 19
135 132 130 129 128 113 95 59 19 356 342 342 359 5 9 5 4 4 46 40 21 6
126 125 123 120 113 101 75 55 37 18 9 19 29 33 19 10 358 14 78 44 13 349
124 122 115 102 85 75 69 53 41 23 33 41 38 29 13 352 338 30 114 344 337 330
120 115 105 89 74 72 66 51 39 25 43 52 37 18 4 354 5 7 243 273 320 320
118 108 97 92 91 86 60 45 25 37 45 47 38 22 16 17 14 304 280 301 323 328
105 102 105 114 106 104 77 25 29 40 39 40 35 25 16 11 356 344 324 307 318 318
111 118 132 127 130 151 156 356 34 19 23 21 15 11 1 354 357 348 322 311 311 314
118 131 137 134 150 174 200 273 350 6 0 359 358 357 355 349 345 345 331 315 318 321